Location: Newark
(28.4500°N, 16.2500°W)
Time: 17:16:03
(UTC+00:00)

JUGNU - Pass Details

Date: 27 October 2019
Orbit: 836 x 864 km, 20.0° (Epoch: 16 November)

Event Time Altitude Azimuth Distance (km) Brightness Sun altitude
Rises 19:54:40 0° 238° (WSW) 3,380 ? -20.4°
Reaches altitude 10° 19:57:32 10° 227° (SW) 2,450 ? -21.0°
Maximum altitude 20:02:31 29° 169° (S) 1,510 ? -22.1°
Enters shadow 20:03:54 26° 146° (SE) 1,606 ? -22.4°
